Terug naar catalogus

STARLINK-5465

ActiefCommunicatieVLEO
NORAD 54775·PAYLOAD·🇺🇸 United States

Gelanceerd Dec 17, 2022 vanaf Cape Canaveral Space Force Station

Loading…

Volgende Passages (komende 24 uur)

TLE

VersSource: CelesTrak SupGP

Epoch: Sep 15, 2026, 02:48 UTC

1 54775C 22175T   26258.11715278 -.00022417  00000+0 -66223-3 0  2587
2 54775  53.1569 262.8142 0001304  92.0796 246.5709 15.34405541    11

Volg STARLINK-5465 in realtime met AllMySat

Download on the App Store